Location: Thompson
(55.7500°N, 97.8670°W)
Time: 22:22:51
(UTC-05:00)

Amateur Radio Satellites - All Passes

Search period start: 17 April 2015 21:52
Search period end: 18 April 2015 21:52
Location: Thompson, 55.7500°N, 97.8670°W

Satellite Date Start Highest point End Downlink Frequencies (MHz)
Time Altitude Azimuth
DANDE 17 Apr 21:53:44 21:54:42 11° 318° (NW) 21:55:37 436.750
DELFI C3 17 Apr 21:59:41 22:03:46 67° 71° (ENE) 22:07:51 145.870
HO-68 17 Apr 22:06:38 22:13:26 43° 264° (W) 22:20:14 435.675
COMPASS 1 17 Apr 22:12:08 22:16:07 38° 264° (W) 22:20:08 437.405
PRISM 17 Apr 22:12:25 22:15:19 18° 305° (NW) 22:18:09 437.425
HUMSAT D 17 Apr 22:12:31 22:16:25 38° 65° (ENE) 22:20:25 437.325/437.525
YUBILEINY 17 Apr 22:12:38 22:20:49 41° 59° (ENE) 22:29:00 435.215
Cosmos 2491 17 Apr 22:14:10 22:17:54 14° 65° (ENE) 22:22:06 435.465 / 435.565
VELOX 1 17 Apr 22:15:24 22:19:15 31° 61° (ENE) 22:23:09 145.980
CANX-2 17 Apr 22:17:25 22:21:02 25° 269° (W) 22:24:38 2200.000
FUNcube-1 17 Apr 22:18:49 22:23:06 74° 72° (ENE) 22:27:32 145.935
AUBIESAT-1 17 Apr 22:22:59 22:25:52 16° 319° (NW) 22:28:35 437.475
SEEDS 17 Apr 22:24:02 22:27:44 27° 268° (W) 22:31:23 437.485
STRAND 1 17 Apr 22:24:23 22:28:40 27° 304° (NW) 22:32:53 437.568
CUTE 1.7 + AOD 2 17 Apr 22:28:14 22:31:40 22° 270° (W) 22:35:03 437.475
AISAT 17 Apr 22:29:17 22:33:23 39° 64° (ENE) 22:37:31 437.250
GONETS M04 17 Apr 22:31:04 22:36:02 15° 332° (NNW) 22:40:49
CUBEBUG 2 17 Apr 22:36:34 22:40:49 57° 259° (W) 22:45:15 437.445
ESTCUBE 1 17 Apr 22:37:22 22:41:16 29° 61° (ENE) 22:45:13 437.505/2401.250
UKube-1 17 Apr 22:39:02 22:43:22 82° 72° (ENE) 22:47:44 .
CUBESAT XI-V 17 Apr 22:40:17 22:41:53 12° 313° (NW) 22:43:21 437.345
ZACube-1 17 Apr 22:40:32 22:44:50 73° 257° (WSW) 22:49:17 437.345
Cosmos 2504 17 Apr 22:46:52 22:51:00 14° 26° (NNE) 22:55:16 435.465 / 435.565
CUBEBUG 1 17 Apr 22:47:07 22:50:54 30° 62° (ENE) 22:54:44 437.445
RS-15 17 Apr 22:48:10 22:59:14 60° 19° (NNE) 23:10:51 29.354- 29.394
Oscar 11 17 Apr 23:01:52 23:05:44 30° 266° (W) 23:09:37 145.826/435.025
AAUSAT CUBESAT 2 17 Apr 23:03:59 23:06:48 17° 274° (W) 23:09:32 437.432
DOVE 4 17 Apr 23:04:49 23:06:54 13° 278° (W) 23:08:52 437.250
SPROUT 17 Apr 23:07:40 23:10:29 18° 55° (NE) 23:13:25 437.525
TIGRISAT 17 Apr 23:09:20 23:12:39 19° 87° (E) 23:16:06 435.000
UNISAT 6 17 Apr 23:09:26 23:12:50 20° 87° (E) 23:16:20 437.425
TISAT 1 17 Apr 23:11:25 23:13:58 16° 54° (NE) 23:16:38 437.305
SO-50 17 Apr 23:14:26 23:19:06 42° 234° (SW) 23:23:44 436.795
CINEMA 3 17 Apr 23:16:18 23:19:17 18° 274° (W) 23:22:15 145.822/145.860
DX 1 17 Apr 23:19:41 23:23:51 44° 261° (W) 23:28:01 434.975-435.025
POPSAT HIP 1 17 Apr 23:22:11 23:23:59 13° 84° (E) 23:25:57 437.405
UWE-3 17 Apr 23:22:28 23:26:14 28° 268° (W) 23:30:04 435.000/436.395/437.385
NANOSAT C BR1 17 Apr 23:23:04 23:24:55 13° 84° (E) 23:26:55 145.865
50 SAT 17 Apr 23:23:31 23:27:31 75° 256° (WSW) 23:31:35 437.505
Cosmos 2499 17 Apr 23:35:35 23:42:13 22° 318° (NW) 23:48:29 435.465 / 435.565
DELFI C3 17 Apr 23:36:27 23:39:23 18° 272° (W) 23:42:14 145.870
POLYITAN 1 17 Apr 23:46:42 23:49:57 21° 90° (E) 23:53:15 437.675
HUMSAT D 17 Apr 23:48:25 23:52:16 33° 265° (W) 23:56:09 437.325/437.525
ANTELSAT 17 Apr 23:50:32 23:55:01 40° 97° (E) 23:59:29 437.575/2403.000
VELOX 1 17 Apr 23:51:27 23:55:42 46° 261° (W) 23:59:59 145.980
ITUPSAT 1 17 Apr 23:53:47 23:55:44 13° 45° (NE) 23:57:50 437.325
FUNcube-1 17 Apr 23:56:58 00:00:02 18° 273° (W) 00:03:03 145.935
DUCHIFAT 1 17 Apr 23:58:41 00:02:12 25° 92° (E) 00:05:46 145.980
Cosmos 2491 18 Apr 00:04:29 00:12:44 51° 89° (E) 00:21:07 435.465 / 435.565
AISAT 18 Apr 00:06:01 00:10:04 34° 264° (W) 00:14:06 437.250
YUBILEINY 18 Apr 00:09:37 00:18:23 69° 265° (W) 00:27:00 435.215
QB50P1 18 Apr 00:10:12 00:14:01 31° 95° (E) 00:17:53 145.935-145.965
ESTCUBE 1 18 Apr 00:13:34 00:17:59 50° 260° (W) 00:22:25 437.505/2401.250
UKube-1 18 Apr 00:17:19 00:20:09 16° 273° (W) 00:22:51 .
ZACube-1 18 Apr 00:20:22 00:22:09 12° 279° (W) 00:23:45 437.345
CUBEBUG 1 18 Apr 00:23:00 00:27:11 45° 261° (W) 00:31:22 437.445
BEESAT 18 Apr 00:28:26 00:31:54 21° 53° (NE) 00:35:27 436.000
SWISSCUBE 18 Apr 00:29:15 00:32:50 22° 54° (NE) 00:36:31 437.505
QB50P2 18 Apr 00:32:51 00:37:02 50° 100° (E) 00:41:14 145.880/145.840
BUGSAT 1 18 Apr 00:33:21 00:37:08 36° 97° (E) 00:40:58 437.445
GONETS M04 18 Apr 00:35:54 00:38:01 11° 6° (N) 00:40:13
Cosmos 2504 18 Apr 00:40:09 00:47:49 35° 55° (NE) 00:55:07 435.465 / 435.565
SPROUT 18 Apr 00:41:47 00:46:05 87° 260° (W) 00:50:24 437.525
TISAT 1 18 Apr 00:45:00 00:49:13 86° 75° (ENE) 00:53:27 437.305
TIGRISAT 18 Apr 00:45:16 00:50:01 79° 287° (WNW) 00:54:45 435.000
UNISAT 6 18 Apr 00:45:27 00:50:12 77° 288° (WNW) 00:54:56 437.425
POPSAT HIP 1 18 Apr 00:56:22 01:00:40 78° 103° (ESE) 01:04:58 437.405
NANOSAT C BR1 18 Apr 00:57:16 01:01:34 79° 105° (ESE) 01:05:51 145.865
RS-15 18 Apr 01:01:09 01:12:30 80° 228° (SW) 01:24:22 29.354- 29.394
50 SAT 18 Apr 01:01:57 01:03:12 11° 277° (W) 01:04:16 437.505
KKS-1 18 Apr 01:11:15 01:12:57 12° 48° (NE) 01:14:49 437.445
O/OREOS (USA 219) 18 Apr 01:19:35 01:24:05 57° 116° (ESE) 01:28:35 437.305
POLYITAN 1 18 Apr 01:22:01 01:26:17 63° 290° (WNW) 01:30:33 437.675
ANTELSAT 18 Apr 01:27:25 01:31:48 38° 297° (WNW) 01:36:09 437.575/2403.000
ITUPSAT 1 18 Apr 01:28:03 01:32:41 50° 66° (ENE) 01:37:21 437.325
DUCHIFAT 1 18 Apr 01:34:09 01:38:18 51° 292° (WNW) 01:42:27 145.980
Cosmos 2499 18 Apr 01:38:00 01:39:39 11° 349° (NNW) 01:41:10 435.465 / 435.565
QB50P1 18 Apr 01:45:59 01:50:01 41° 295° (WNW) 01:54:02 145.935-145.965
AIST 1 18 Apr 02:00:31 02:04:12 28° 90° (E) 02:07:57
Cosmos 2491 18 Apr 02:01:10 02:09:42 54° 294° (WNW) 02:18:17 435.465 / 435.565
BEESAT 18 Apr 02:04:25 02:09:14 88° 255° (WSW) 02:14:04 436.000
SWISSCUBE 18 Apr 02:05:25 02:10:15 82° 254° (WSW) 02:15:05 437.505
YUBILEINY 18 Apr 02:07:40 02:13:44 21° 288° (WNW) 02:19:26 435.215
BUGSAT 1 18 Apr 02:08:55 02:12:37 33° 296° (WNW) 02:16:19 437.445
QB50P2 18 Apr 02:09:06 02:12:46 27° 299° (WNW) 02:16:23 145.880/145.840
Oscar 19 18 Apr 02:18:50 02:23:15 28° 91° (E) 02:27:44 437.125/150
SPROUT 18 Apr 02:20:32 02:22:54 14° 275° (W) 02:25:08 437.525
TIGRISAT 18 Apr 02:22:59 02:26:08 18° 307° (NW) 02:29:11 435.000
TISAT 1 18 Apr 02:23:11 02:25:40 15° 274° (W) 02:28:02 437.305
UNISAT 6 18 Apr 02:23:13 02:26:20 17° 308° (NW) 02:29:21 437.425
STARS 18 Apr 02:24:32 02:28:15 28° 60° (ENE) 02:32:02 437.465
POPSAT HIP 1 18 Apr 02:33:01 02:36:07 19° 304° (NW) 02:39:09 437.405
GONETS M04 18 Apr 02:33:21 02:39:34 21° 39° (NE) 02:46:00
Cosmos 2504 18 Apr 02:33:40 02:42:14 78° 262° (W) 02:50:09 435.465 / 435.565
NANOSAT C BR1 18 Apr 02:33:55 02:36:58 19° 304° (NW) 02:39:57 145.865
ITAMSAT 1 18 Apr 02:35:05 02:37:46 14° 83° (E) 02:40:39 435.822/435.867
KKS-1 18 Apr 02:44:26 02:48:45 54° 68° (ENE) 02:53:07 437.445
POLYITAN 1 18 Apr 02:59:23 03:01:29 13° 310° (NW) 03:03:28 437.675
O/OREOS (USA 219) 18 Apr 02:59:38 03:03:47 32° 318° (NW) 03:07:55 437.305
ITUPSAT 1 18 Apr 03:06:32 03:10:49 31° 266° (W) 03:15:05 437.325
DUCHIFAT 1 18 Apr 03:11:59 03:13:17 11° 312° (NW) 03:14:28 145.980
DANDE 18 Apr 03:12:29 03:13:56 11° 42° (NE) 03:15:44 436.750
RS-15 18 Apr 03:13:59 03:23:33 31° 253° (WSW) 03:33:09 29.354- 29.394
CUSAT 1 18 Apr 03:28:21 03:32:06 17° 49° (NE) 03:36:36 437.405
Cosmos 2499 18 Apr 03:34:32 03:37:47 13° 21° (NNE) 03:41:08 435.465 / 435.565
AIST 1 18 Apr 03:37:37 03:41:45 42° 290° (WNW) 03:45:53
BEESAT 18 Apr 03:44:46 03:47:52 16° 275° (W) 03:50:49 436.000
M-CUBED/EXP-1 PRIME 18 Apr 03:45:02 03:47:25 14° 38° (NE) 03:49:55 437.505
MOZHAYETS 4 18 Apr 03:45:57 03:49:36 23° 57° (ENE) 03:53:18
SWISSCUBE 18 Apr 03:46:06 03:48:57 15° 276° (W) 03:51:40 437.505
Gurwin Techsat 1B 18 Apr 03:52:06 03:57:13 46° 98° (E) 04:02:21 435.225
Oscar 19 18 Apr 03:57:52 04:03:02 62° 293° (WNW) 04:08:10 437.125/150
STARS 18 Apr 04:00:14 04:04:31 52° 259° (W) 04:08:51 437.465
Cosmos 2491 18 Apr 04:03:01 04:09:10 20° 323° (NW) 04:15:07 435.465 / 435.565
ITAMSAT 1 18 Apr 04:13:07 04:18:19 72° 104° (ESE) 04:23:30 435.822/435.867
KKS-1 18 Apr 04:21:58 04:25:42 25° 268° (W) 04:29:24 437.445
Cosmos 2504 18 Apr 04:28:06 04:34:22 23° 286° (WNW) 04:40:07 435.465 / 435.565
AO-7 18 Apr 04:30:11 04:36:47 26° 87° (E) 04:43:36 29.400- 29.500
GONETS M04 18 Apr 04:30:11 04:38:54 57° 68° (ENE) 04:47:37
AUBIESAT-1 18 Apr 04:33:40 04:37:24 23° 48° (NE) 04:41:13 437.475
O/OREOS (USA 219) 18 Apr 04:42:26 04:44:39 13° 342° (NNW) 04:46:49 437.305
HORYU 2 18 Apr 04:47:14 04:51:24 35° 96° (E) 04:55:32 437.375
DANDE 18 Apr 04:53:27 04:58:45 38° 64° (ENE) 05:05:31 436.750
JAS-2 18 Apr 04:53:38 05:00:01 34° 89° (E) 05:05:48 435.910
STRAND 1 18 Apr 04:54:41 04:56:15 11° 41° (NE) 04:57:59 437.568
CUBESAT XI-V 18 Apr 04:59:37 05:02:06 15° 50° (NE) 05:04:41 437.345
CUSAT 1 18 Apr 05:10:05 05:16:02 56° 69° (ENE) 05:23:32 437.405
BEESAT 3 18 Apr 05:10:35 05:12:16 12° 113° (ESE) 05:14:06 437.485
M-CUBED/EXP-1 PRIME 18 Apr 05:16:44 05:21:18 46° 58° (ENE) 05:25:58 437.505
MOZHAYETS 4 18 Apr 05:21:48 05:26:27 71° 258° (WSW) 05:31:08
Cosmos 2499 18 Apr 05:27:25 05:34:34 30° 52° (NE) 05:41:23 435.465 / 435.565
Gurwin Techsat 1B 18 Apr 05:32:15 05:37:12 39° 299° (WNW) 05:42:05 435.225
Oscar 19 18 Apr 05:38:21 05:41:32 16° 313° (NW) 05:44:37 437.125/150
ITAMSAT 1 18 Apr 05:53:10 05:57:28 26° 305° (NW) 06:01:41 435.822/435.867
PRISM 18 Apr 05:58:58 06:02:26 26° 60° (ENE) 06:05:58 437.425
AUBIESAT-1 18 Apr 06:06:54 06:11:42 87° 250° (WSW) 06:16:34 437.475
Cosmos 2491 18 Apr 06:08:56 06:10:47 11° 356° (N) 06:12:36 435.465 / 435.565
AO-7 18 Apr 06:22:32 06:30:56 85° 112° (ESE) 06:39:17 29.400- 29.500
HORYU 2 18 Apr 06:23:52 06:28:08 41° 296° (WNW) 06:32:21 437.375
O/OREOS (USA 219) 18 Apr 06:24:56 06:26:07 11° 7° (N) 06:27:21 437.305
GONETS M04 18 Apr 06:27:22 06:35:46 49° 272° (W) 06:44:04
STRAND 1 18 Apr 06:29:33 06:34:18 41° 62° (ENE) 06:39:07 437.568
CUBESAT XI-V 18 Apr 06:34:11 06:38:48 65° 70° (ENE) 06:43:25 437.345
BEESAT 2 18 Apr 06:36:00 06:40:00 48° 129° (SE) 06:44:03 435.950
DANDE 18 Apr 06:36:30 06:42:16 61° 261° (W) 06:49:42 436.750
JAS-2 18 Apr 06:38:31 06:45:43 67° 294° (WNW) 06:52:02 435.910
AIST 2 18 Apr 06:44:40 06:48:14 27° 121° (ESE) 06:51:54 435.215
BEESAT 3 18 Apr 06:45:30 06:49:35 64° 133° (SE) 06:53:42 437.485
M-CUBED/EXP-1 PRIME 18 Apr 06:51:47 06:56:14 38° 258° (WSW) 07:00:46 437.505
CUSAT 1 18 Apr 06:52:59 06:58:48 42° 266° (W) 07:05:52 437.405
MOZHAYETS 4 18 Apr 07:02:31 07:04:38 13° 278° (W) 07:06:35
Gurwin Techsat 1B 18 Apr 07:14:12 07:15:56 11° 320° (NW) 07:17:30 435.225
Cosmos 2499 18 Apr 07:20:36 07:29:02 89° 249° (WSW) 07:36:45 435.465 / 435.565
PRISM 18 Apr 07:33:37 07:37:43 51° 259° (W) 07:41:49 437.425
CUTE-I 18 Apr 07:38:56 07:44:01 45° 98° (E) 07:49:07 437.470
AUBIESAT-1 18 Apr 07:43:56 07:47:11 18° 268° (W) 07:50:21 437.475
Cubesat XI-IV 18 Apr 07:45:54 07:51:06 50° 100° (E) 07:56:17 437.490
O/OREOS (USA 219) 18 Apr 08:03:55 08:07:20 20° 32° (NNE) 08:10:46 437.305
Cosmos 2491 18 Apr 08:07:50 08:12:44 16° 29° (NNE) 08:17:53 435.465 / 435.565
STRAND 1 18 Apr 08:08:43 08:13:34 41° 263° (W) 08:18:25 437.568
CUBESAT XI-V 18 Apr 08:13:00 08:16:42 22° 271° (W) 08:20:19 437.345
BEESAT 2 18 Apr 08:14:13 08:18:13 43° 330° (NNW) 08:22:14 435.950
AO-7 18 Apr 08:15:45 08:23:09 37° 314° (NW) 08:30:27 29.400- 29.500
DANDE 18 Apr 08:21:24 08:24:56 15° 277° (W) 08:28:35 436.750
AIST 2 18 Apr 08:22:15 08:26:33 70° 322° (NW) 08:30:52 435.215
BEESAT 3 18 Apr 08:23:59 08:27:52 37° 334° (NNW) 08:31:45 437.485
JAS-2 18 Apr 08:24:09 08:29:35 23° 317° (NW) 08:34:28 435.910
GONETS M04 18 Apr 08:26:31 08:30:29 13° 296° (WNW) 08:33:58
BRITE-PL 18 Apr 09:05:02 09:08:57 26° 92° (E) 09:13:10 437.365/2234.400
Cosmos 2499 18 Apr 09:14:36 09:21:10 26° 283° (WNW) 09:27:11 435.465 / 435.565
DOVE 4 18 Apr 09:15:31 09:18:45 18° 86° (E) 09:22:13 437.250
CUTE-I 18 Apr 09:19:10 09:24:08 40° 299° (WNW) 09:29:03 437.470
ANTELSAT 18 Apr 09:22:12 09:25:09 18° 52° (NE) 09:28:14 437.575/2403.000
HO-68 18 Apr 09:25:27 09:31:33 29° 90° (E) 09:37:44 435.675
CINEMA 3 18 Apr 09:25:38 09:27:42 13° 82° (E) 09:30:00 145.822/145.860
Cubesat XI-IV 18 Apr 09:26:16 09:31:08 37° 300° (WNW) 09:35:57 437.490
DUCHIFAT 1 18 Apr 09:26:38 09:27:15 10° 47° (NE) 09:28:01 145.980
GOMX 1 18 Apr 09:35:30 09:39:47 33° 94° (E) 09:44:22 467.674
QB50P1 18 Apr 09:37:17 09:39:04 13° 50° (NE) 09:40:59 145.935-145.965
O/OREOS (USA 219) 18 Apr 09:43:00 09:47:34 74° 56° (NE) 09:52:04 437.305
COMPASS 1 18 Apr 09:48:18 09:51:38 22° 90° (E) 09:55:01 437.405
BEESAT 2 18 Apr 09:53:45 09:57:12 24° 353° (N) 10:00:38 435.950
CANX-2 18 Apr 09:54:22 09:58:23 36° 96° (E) 10:02:23 2200.000
BUGSAT 1 18 Apr 09:57:56 09:59:45 13° 52° (NE) 10:01:44 437.445
QB50P2 18 Apr 09:58:57 10:01:49 18° 55° (NE) 10:04:46 145.880/145.840
SEEDS 18 Apr 10:00:15 10:04:08 33° 94° (E) 10:08:01 437.485
AIST 2 18 Apr 10:02:00 10:05:46 28° 344° (NNW) 10:09:32 435.215
BEESAT 3 18 Apr 10:03:28 10:06:51 23° 357° (N) 10:10:13 437.485
Cosmos 2491 18 Apr 10:04:39 10:12:51 41° 59° (ENE) 10:21:06 435.465 / 435.565
CUTE 1.7 + AOD 2 18 Apr 10:04:46 10:08:53 41° 97° (E) 10:12:59 437.475
AO-7 18 Apr 10:08:36 10:13:48 18° 340° (NNW) 10:18:54 29.400- 29.500
JAS-2 18 Apr 10:10:54 10:12:05 10° 342° (NNW) 10:13:07 435.910
TIGRISAT 18 Apr 10:15:07 10:19:16 38° 64° (ENE) 10:23:34 435.000
UNISAT 6 18 Apr 10:15:29 10:19:40 39° 64° (ENE) 10:24:00 437.425
CUBEBUG 2 18 Apr 10:20:20 10:23:50 21° 88° (E) 10:27:28 437.445
POPSAT HIP 1 18 Apr 10:21:38 10:25:05 25° 60° (ENE) 10:28:36 437.405
NANOSAT C BR1 18 Apr 10:22:17 10:25:45 26° 60° (ENE) 10:29:17 145.865
ZACube-1 18 Apr 10:22:35 10:25:15 15° 84° (E) 10:28:03 437.345
AAUSAT CUBESAT 2 18 Apr 10:37:35 10:41:45 52° 100° (E) 10:45:52 437.432
PCSat 18 Apr 10:39:38 10:43:56 25° 113° (ESE) 10:48:21 145.827
Oscar 11 18 Apr 10:41:08 10:45:03 31° 94° (E) 10:48:58 145.826/435.025
BRITE-PL 18 Apr 10:43:16 10:47:47 57° 291° (WNW) 10:52:41 437.365/2234.400
POLYITAN 1 18 Apr 10:46:47 10:50:44 40° 65° (ENE) 10:54:45 437.675
DOVE 4 18 Apr 10:52:21 10:57:09 88° 290° (WNW) 11:02:14 437.250
ANTELSAT 18 Apr 10:56:47 11:01:18 82° 71° (ENE) 11:05:58 437.575/2403.000
DUCHIFAT 1 18 Apr 10:58:10 11:02:12 48° 67° (ENE) 11:06:17 145.980
DX 1 18 Apr 11:00:51 11:04:00 20° 89° (E) 11:07:14 434.975-435.025
CINEMA 3 18 Apr 11:01:03 11:05:50 68° 102° (ESE) 11:10:47 145.822/145.860
CUTE-I 18 Apr 11:01:03 11:03:00 12° 320° (NW) 11:04:47 437.470
UWE-3 18 Apr 11:03:50 11:08:11 38° 96° (E) 11:12:34 435.000/436.395/437.385
DELFI C3 18 Apr 11:07:00 11:10:53 40° 98° (E) 11:14:43 145.870
Cubesat XI-IV 18 Apr 11:08:34 11:09:56 11° 322° (NW) 11:11:08 437.490
QB50P1 18 Apr 11:10:02 11:14:12 62° 70° (ENE) 11:18:25 145.935-145.965
HO-68 18 Apr 11:12:52 11:20:07 81° 293° (WNW) 11:27:19 435.675
GOMX 1 18 Apr 11:13:35 11:18:05 47° 293° (WNW) 11:22:54 467.674
O/OREOS (USA 219) 18 Apr 11:23:09 11:26:32 20° 256° (WSW) 11:29:49 437.305
COMPASS 1 18 Apr 11:23:30 11:27:41 56° 291° (WNW) 11:31:49 437.405
YUBILEINY 18 Apr 11:24:24 11:31:49 33° 80° (E) 11:39:24 435.215
HUMSAT D 18 Apr 11:24:46 11:28:27 26° 92° (E) 11:32:10 437.325/437.525
CANX-2 18 Apr 11:30:21 11:34:20 36° 296° (WNW) 11:38:15 2200.000
BUGSAT 1 18 Apr 11:30:35 11:34:36 70° 70° (ENE) 11:38:38 437.445
BEESAT 2 18 Apr 11:32:44 11:36:24 28° 17° (NNE) 11:40:02 435.950
QB50P2 18 Apr 11:33:00 11:37:14 84° 254° (WSW) 11:41:31 145.880/145.840
VELOX 1 18 Apr 11:34:45 11:38:04 21° 89° (E) 11:41:29 145.980
FUNcube-1 18 Apr 11:35:48 11:40:19 57° 100° (E) 11:44:52 145.935
SEEDS 18 Apr 11:36:01 11:40:02 39° 295° (WNW) 11:43:59 437.485
CUTE 1.7 + AOD 2 18 Apr 11:40:52 11:44:45 32° 297° (WNW) 11:48:33 437.475
AIST 2 18 Apr 11:41:50 11:45:27 25° 8° (N) 11:49:02 435.215
BEESAT 3 18 Apr 11:42:10 11:45:54 31° 21° (NNE) 11:49:37 437.485
AISAT 18 Apr 11:48:55 11:52:44 28° 93° (E) 11:56:36 437.250
TIGRISAT 18 Apr 11:51:53 11:56:04 37° 264° (W) 12:00:21 435.000
UNISAT 6 18 Apr 11:52:21 11:56:32 36° 265° (W) 12:00:48 437.425
UKube-1 18 Apr 11:55:11 11:59:27 52° 101° (E) 12:03:42 .
CUBEBUG 2 18 Apr 11:56:21 12:01:02 73° 289° (WNW) 12:05:47 437.445
POPSAT HIP 1 18 Apr 11:56:37 12:00:44 53° 259° (W) 12:04:54 437.405
NANOSAT C BR1 18 Apr 11:57:17 12:01:24 52° 260° (W) 12:05:33 145.865
ZACube-1 18 Apr 11:57:44 12:02:21 86° 105° (ESE) 12:06:59 437.345
AO-7 18 Apr 11:59:03 12:03:32 16° 9° (N) 12:08:04 29.400- 29.500
ESTCUBE 1 18 Apr 11:59:05 12:02:30 21° 89° (E) 12:06:00 437.505/2401.250
AIST 1 18 Apr 11:59:40 12:02:42 19° 59° (ENE) 12:05:48
Cosmos 2491 18 Apr 12:01:41 12:10:26 69° 265° (W) 12:19:10 435.465 / 435.565
CUBEBUG 1 18 Apr 12:04:36 12:07:52 21° 89° (E) 12:11:13 437.445
Oscar 19 18 Apr 12:05:56 12:09:30 20° 50° (NE) 12:13:11 437.125/150
AAUSAT CUBESAT 2 18 Apr 12:13:37 12:17:10 26° 300° (WNW) 12:20:38 437.432
Oscar 11 18 Apr 12:17:13 12:21:23 42° 294° (WNW) 12:25:29 145.826/435.025
PCSat 18 Apr 12:21:25 12:26:52 84° 313° (NW) 12:32:21 145.827
POLYITAN 1 18 Apr 12:22:58 12:26:46 31° 265° (W) 12:30:35 437.675
SPROUT 18 Apr 12:23:18 12:24:13 11° 81° (E) 12:25:20 437.525
BRITE-PL 18 Apr 12:23:25 12:25:37 13° 310° (NW) 12:27:44 437.365/2234.400
ITAMSAT 1 18 Apr 12:24:06 12:26:14 13° 42° (NE) 12:28:30 435.822/435.867
50 SAT 18 Apr 12:28:12 12:32:16 63° 102° (ESE) 12:36:18 437.505
DOVE 4 18 Apr 12:31:00 12:34:26 20° 305° (NW) 12:37:53 437.250
DUCHIFAT 1 18 Apr 12:34:41 12:38:16 26° 268° (W) 12:41:50 145.980
ANTELSAT 18 Apr 12:35:41 12:38:46 17° 274° (W) 12:41:48 437.575/2403.000
DX 1 18 Apr 12:36:23 12:40:44 68° 291° (WNW) 12:45:04 434.975-435.025
CINEMA 3 18 Apr 12:38:48 12:42:43 25° 301° (WNW) 12:46:41 145.822/145.860
UWE-3 18 Apr 12:40:25 12:44:45 39° 295° (WNW) 12:49:05 435.000/436.395/437.385
DELFI C3 18 Apr 12:42:20 12:45:57 30° 297° (WNW) 12:49:29 145.870
QB50P1 18 Apr 12:47:16 12:50:30 21° 270° (W) 12:53:40 145.935-145.965
GOMX 1 18 Apr 12:53:44 12:55:22 11° 312° (NW) 12:56:51 467.674
HUMSAT D 18 Apr 13:00:14 13:04:27 50° 292° (WNW) 13:08:40 437.325/437.525
COMPASS 1 18 Apr 13:00:56 13:02:34 12° 310° (NW) 13:04:05 437.405
HO-68 18 Apr 13:01:08 13:07:03 28° 315° (NW) 13:12:50 435.675
BUGSAT 1 18 Apr 13:07:50 13:10:35 17° 272° (W) 13:13:15 437.445
VELOX 1 18 Apr 13:10:42 13:15:06 66° 290° (WNW) 13:19:30 145.980
BEESAT 2 18 Apr 13:10:55 13:15:06 74° 39° (NE) 13:19:14 435.950
QB50P2 18 Apr 13:11:47 13:13:55 13° 276° (W) 13:15:54 145.880/145.840
FUNcube-1 18 Apr 13:12:33 13:16:25 27° 300° (WNW) 13:20:16 145.935
YUBILEINY 18 Apr 13:19:04 13:27:57 80° 284° (WNW) 13:36:50 435.215
BEESAT 3 18 Apr 13:20:11 13:24:22 88° 230° (SW) 13:28:28 437.485
AIST 2 18 Apr 13:20:42 13:24:53 47° 31° (NNE) 13:29:01 435.215
AISAT 18 Apr 13:25:16 13:29:34 49° 294° (WNW) 13:33:52 437.250
Cosmos 2504 18 Apr 13:29:35 13:35:46 23° 74° (ENE) 13:42:13 435.465 / 435.565
JAS-2 18 Apr 13:31:32 13:35:58 17° 35° (NE) 13:40:28 435.910
UKube-1 18 Apr 13:31:43 13:35:24 27° 301° (WNW) 13:39:02 .
CUBEBUG 2 18 Apr 13:34:08 13:37:04 16° 308° (NW) 13:39:55 437.445
ZACube-1 18 Apr 13:34:55 13:38:13 20° 305° (NW) 13:41:28 437.345
ESTCUBE 1 18 Apr 13:35:22 13:39:52 66° 290° (WNW) 13:44:19 437.505/2401.250
AIST 1 18 Apr 13:36:38 13:40:56 72° 260° (W) 13:45:10
SO-50 18 Apr 13:38:50 13:40:17 11° 110° (ESE) 13:41:56 436.795
CUBEBUG 1 18 Apr 13:40:22 13:44:41 64° 289° (WNW) 13:48:59 437.445
Gurwin Techsat 1B 18 Apr 13:41:55 13:46:33 32° 58° (ENE) 13:51:14 435.225
Oscar 19 18 Apr 13:43:02 13:48:11 79° 72° (ENE) 13:53:25 437.125/150
AO-7 18 Apr 13:47:13 13:53:43 27° 36° (NE) 14:00:20 29.400- 29.500
SPROUT 18 Apr 13:56:56 14:01:16 66° 103° (ESE) 14:05:34 437.525
TISAT 1 18 Apr 13:57:48 14:02:00 55° 101° (E) 14:06:10 437.305
BEESAT 18 Apr 13:58:21 14:00:56 15° 84° (E) 14:03:41 436.000
SWISSCUBE 18 Apr 13:59:15 14:02:07 16° 85° (E) 14:05:06 437.505
ITAMSAT 1 18 Apr 13:59:44 14:04:39 45° 64° (ENE) 14:09:37 435.822/435.867
Cosmos 2491 18 Apr 13:59:46 14:05:50 21° 288° (WNW) 14:11:37 435.465 / 435.565
50 SAT 18 Apr 14:03:38 14:06:47 21° 301° (WNW) 14:09:51 437.505
PCSat 18 Apr 14:06:04 14:10:59 33° 337° (NNW) 14:15:54 145.827
DX 1 18 Apr 14:13:54 14:16:18 14° 310° (NW) 14:18:36 434.975-435.025
HORYU 2 18 Apr 14:18:17 14:21:05 17° 52° (NE) 14:24:00 437.375
HUMSAT D 18 Apr 14:38:01 14:39:20 11° 312° (NW) 14:40:30 437.325/437.525
VELOX 1 18 Apr 14:48:34 14:50:57 14° 310° (NW) 14:53:13 145.980
BEESAT 2 18 Apr 14:49:31 14:52:53 24° 240° (WSW) 14:56:10 435.950
HO-68 18 Apr 14:49:40 14:52:34 13° 340° (NNW) 14:55:20 435.675
ITUPSAT 1 18 Apr 14:58:46 15:03:19 41° 98° (E) 15:07:50 437.325
BEESAT 3 18 Apr 14:59:02 15:01:53 18° 243° (WSW) 15:04:37 437.485
AIST 2 18 Apr 14:59:25 15:03:31 44° 233° (SW) 15:07:31 435.215
AISAT 18 Apr 15:03:49 15:05:17 11° 313° (NW) 15:06:35 437.250
JAS-2 18 Apr 15:12:07 15:19:18 42° 57° (ENE) 15:26:22 435.910
ESTCUBE 1 18 Apr 15:13:32 15:16:00 14° 310° (NW) 15:18:20 437.505/2401.250
SO-50 18 Apr 15:15:16 15:19:52 53° 129° (SE) 15:24:38 436.795
AIST 1 18 Apr 15:16:31 15:17:50 11° 280° (W) 15:18:57
CUBEBUG 1 18 Apr 15:18:09 15:20:19 13° 310° (NW) 15:22:22 437.445
YUBILEINY 18 Apr 15:18:58 15:26:25 28° 311° (NW) 15:33:42 435.215
Cosmos 2504 18 Apr 15:19:04 15:27:53 73° 96° (E) 15:36:41 435.465 / 435.565
Gurwin Techsat 1B 18 Apr 15:21:03 15:26:19 60° 259° (WSW) 15:31:36 435.225
Oscar 19 18 Apr 15:24:15 15:28:13 21° 272° (W) 15:32:05 437.125/150
SPROUT 18 Apr 15:33:38 15:37:00 22° 302° (WNW) 15:40:19 437.525
TISAT 1 18 Apr 15:34:04 15:37:33 25° 300° (WNW) 15:40:59 437.305
BEESAT 18 Apr 15:34:51 15:39:40 80° 106° (ESE) 15:44:26 436.000
SWISSCUBE 18 Apr 15:35:57 15:40:47 86° 106° (ESE) 15:45:34 437.505
RS-15 18 Apr 15:36:11 15:44:35 28° 105° (ESE) 15:53:28 29.354- 29.394
AO-7 18 Apr 15:37:08 15:45:19 67° 60° (ENE) 15:53:32 29.400- 29.500
ITAMSAT 1 18 Apr 15:39:28 15:44:18 38° 264° (W) 15:49:08 435.822/435.867
STARS 18 Apr 15:43:01 15:46:05 18° 88° (E) 15:49:16 437.465
GONETS M04 18 Apr 15:51:14 15:54:24 13° 63° (ENE) 15:58:04
PCSat 18 Apr 15:51:23 15:55:52 25° 3° (N) 16:00:21 145.827
HORYU 2 18 Apr 15:52:37 15:57:07 79° 72° (ENE) 16:01:40 437.375
Cubesat XI-IV 18 Apr 16:01:26 16:02:27 11° 38° (NE) 16:03:37 437.490
KKS-1 18 Apr 16:04:30 16:08:43 38° 97° (E) 16:12:55 437.445
HO-68 18 Apr 16:36:01 16:37:15 10° 8° (N) 16:38:32 435.675
ITUPSAT 1 18 Apr 16:36:47 16:41:13 38° 298° (WNW) 16:45:35 437.325
SO-50 18 Apr 16:55:52 17:00:32 49° 332° (NNW) 17:05:20 436.795
JAS-2 18 Apr 16:56:11 17:04:03 69° 258° (WSW) 17:11:45 435.910
ISS 18 Apr 17:05:16 17:07:54 23° 157° (SSE) 17:10:34 145.825
Gurwin Techsat 1B 18 Apr 17:05:25 17:07:34 12° 281° (W) 17:09:28 435.225
MOZHAYETS 4 18 Apr 17:10:11 17:13:17 18° 86° (E) 17:16:30
BEESAT 18 Apr 17:13:23 17:17:03 22° 305° (NW) 17:20:39 436.000
Cosmos 2504 18 Apr 17:13:47 17:22:04 40° 301° (WNW) 17:30:11 435.465 / 435.565
SWISSCUBE 18 Apr 17:14:35 17:18:08 21° 307° (NW) 17:21:35 437.505
STARS 18 Apr 17:18:39 17:23:06 75° 289° (WNW) 17:27:33 437.465
YUBILEINY 18 Apr 17:23:52 17:27:19 12° 343° (NNW) 17:30:36 435.215
CUTE-I 18 Apr 17:29:28 17:34:07 32° 58° (ENE) 17:38:49 437.470
AO-7 18 Apr 17:30:53 17:38:40 42° 264° (W) 17:46:25 29.400- 29.500
HORYU 2 18 Apr 17:31:14 17:34:23 18° 273° (W) 17:37:26 437.375
PCSat 18 Apr 17:35:35 17:40:40 38° 28° (NNE) 17:45:44 145.827
Cubesat XI-IV 18 Apr 17:36:26 17:41:13 36° 59° (ENE) 17:46:04 437.490
GONETS M04 18 Apr 17:40:54 17:49:04 47° 87° (E) 17:57:24
KKS-1 18 Apr 17:41:14 17:45:22 37° 297° (WNW) 17:49:28 437.445
RS-15 18 Apr 17:44:27 17:55:18 77° 130° (SE) 18:06:33 29.354- 29.394
Cosmos 2499 18 Apr 18:16:08 18:21:27 19° 71° (ENE) 18:27:03 435.465 / 435.565
HO-68 18 Apr 18:17:40 18:22:17 19° 34° (NE) 18:27:02 435.675
DANDE 18 Apr 18:18:35 18:19:40 11° 79° (E) 18:20:57 436.750
M-CUBED/EXP-1 PRIME 18 Apr 18:28:28 18:29:38 11° 86° (E) 18:31:00 437.505
CUSAT 1 18 Apr 18:29:16 18:31:56 21° 85° (E) 18:35:15 437.405
SO-50 18 Apr 18:37:44 18:42:02 30° 355° (N) 18:46:24 436.795
ISS 18 Apr 18:40:43 18:43:49 39° 176° (S) 18:46:54 145.825
JAS-2 18 Apr 18:44:50 18:50:32 20° 281° (W) 18:55:54 435.910
MOZHAYETS 4 18 Apr 18:46:31 18:51:11 81° 285° (WNW) 18:55:47
BRITE-PL 18 Apr 18:48:44 18:50:13 12° 49° (NE) 18:51:50 437.365/2234.400
STARS 18 Apr 18:56:12 18:58:56 16° 308° (NW) 19:01:33 437.465
CUTE-I 18 Apr 19:08:43 19:13:59 59° 258° (WSW) 19:19:17 437.470
PRISM 18 Apr 19:09:46 19:11:55 14° 86° (E) 19:14:11 437.425
Cosmos 2504 18 Apr 19:13:26 19:18:35 16° 329° (NNW) 19:23:27 435.465 / 435.565
Cubesat XI-IV 18 Apr 19:15:59 19:21:13 52° 260° (W) 19:26:27 437.490
GOMX 1 18 Apr 19:16:10 19:18:20 14° 51° (NE) 19:20:40 467.674
AUBIESAT-1 18 Apr 19:16:32 19:20:16 25° 96° (E) 19:23:50 437.475
PCSat 18 Apr 19:19:06 19:24:34 77° 230° (SW) 19:29:59 145.827
CANX-2 18 Apr 19:21:15 19:23:24 14° 52° (NE) 19:25:41 2200.000
YUBILEINY 18 Apr 19:26:12 19:29:25 12° 17° (NNE) 19:32:48 435.215
SEEDS 18 Apr 19:26:46 19:28:33 13° 50° (NE) 19:30:26 437.485
CUTE 1.7 + AOD 2 18 Apr 19:31:16 19:33:43 15° 53° (NE) 19:36:17 437.475
GONETS M04 18 Apr 19:37:14 19:45:53 58° 292° (WNW) 19:54:36
RS-15 18 Apr 19:57:29 20:08:23 61° 341° (NNW) 20:19:44 29.354- 29.394
DANDE 18 Apr 19:58:47 20:01:57 72° 287° (WNW) 20:06:08 436.750
CUBESAT XI-V 18 Apr 20:00:36 20:05:11 58° 101° (E) 20:09:43 437.345
M-CUBED/EXP-1 PRIME 18 Apr 20:00:58 20:05:37 62° 108° (ESE) 20:09:54 437.505
HO-68 18 Apr 20:01:45 20:08:34 49° 58° (ENE) 20:15:28 435.675
AAUSAT CUBESAT 2 18 Apr 20:01:55 20:04:39 17° 55° (NE) 20:07:30 437.432
Cosmos 2499 18 Apr 20:04:24 20:13:05 62° 93° (E) 20:21:36 435.465 / 435.565
Oscar 11 18 Apr 20:09:52 20:11:49 13° 50° (NE) 20:13:55 145.826/435.025
CUSAT 1 18 Apr 20:10:54 20:14:15 43° 295° (WNW) 20:18:39 437.405
STRAND 1 18 Apr 20:11:09 20:15:56 39° 96° (E) 20:20:42 437.568
ISS 18 Apr 20:16:52 20:19:49 31° 196° (SSW) 20:22:44 145.825
SO-50 18 Apr 20:19:06 20:23:41 37° 19° (NNE) 20:28:19 436.795
BRITE-PL 18 Apr 20:23:53 20:27:57 59° 70° (ENE) 20:32:09 437.365/2234.400
MOZHAYETS 4 18 Apr 20:24:43 20:27:47 17° 307° (NW) 20:30:45
DOVE 4 18 Apr 20:28:46 20:32:36 35° 63° (ENE) 20:36:38 437.250
DELFI C3 18 Apr 20:29:15 20:31:11 13° 52° (NE) 20:33:15 145.870
DX 1 18 Apr 20:31:59 20:32:08 10° 45° (NE) 20:32:26 434.975-435.025
UWE-3 18 Apr 20:34:21 20:36:48 15° 51° (NE) 20:39:24 435.000/436.395/437.385
CINEMA 3 18 Apr 20:34:28 20:37:58 25° 59° (ENE) 20:41:40 145.822/145.860
PRISM 18 Apr 20:43:55 20:48:05 89° 291° (WNW) 20:52:12 437.425
COMPASS 1 18 Apr 20:46:34 20:50:32 40° 66° (ENE) 20:54:33 437.405
AUBIESAT-1 18 Apr 20:50:53 20:55:27 60° 299° (WNW) 20:59:42 437.475
GOMX 1 18 Apr 20:51:37 20:55:46 72° 73° (ENE) 21:00:07 467.674
HUMSAT D 18 Apr 20:52:15 20:52:54 10° 47° (NE) 20:53:42 437.325/437.525
CUTE-I 18 Apr 20:53:14 20:55:21 12° 280° (W) 20:57:12 437.470
CANX-2 18 Apr 20:54:22 20:58:38 68° 71° (ENE) 21:02:57 2200.000
SEEDS 18 Apr 20:59:22 21:03:34 60° 70° (ENE) 21:07:50 437.485
Cubesat XI-IV 18 Apr 21:01:47 21:02:44 10° 282° (WNW) 21:03:24 437.490
PCSat 18 Apr 21:03:31 21:07:15 19° 251° (WSW) 21:10:50 145.827
FUNcube-1 18 Apr 21:04:13 21:07:22 20° 56° (NE) 21:10:40 145.935
CUTE 1.7 + AOD 2 18 Apr 21:04:43 21:09:01 77° 73° (ENE) 21:13:21 437.475
VELOX 1 18 Apr 21:07:02 21:07:57 11° 46° (NE) 21:09:00 145.980
Cosmos 2504 18 Apr 21:16:16 21:16:50 10° 2° (N) 21:17:26 435.465 / 435.565
AISAT 18 Apr 21:20:18 21:22:23 13° 49° (NE) 21:24:36 437.250
UKube-1 18 Apr 21:22:38 21:25:52 21° 56° (NE) 21:29:11 .
YUBILEINY 18 Apr 21:23:06 21:30:21 28° 49° (NE) 21:37:42 435.215
ZACube-1 18 Apr 21:25:37 21:29:20 29° 61° (ENE) 21:33:11 437.345
CUBEBUG 2 18 Apr 21:25:52 21:29:53 38° 64° (ENE) 21:34:04 437.445
ESTCUBE 1 18 Apr 21:32:52 21:34:06 11° 46° (NE) 21:35:30 437.505/2401.250
AAUSAT CUBESAT 2 18 Apr 21:35:31 21:39:47 88° 262° (W) 21:44:03 437.432
M-CUBED/EXP-1 PRIME 18 Apr 21:36:10 21:40:10 28° 309° (NW) 21:43:54 437.505
CUBESAT XI-V 18 Apr 21:38:29 21:42:23 27° 301° (WNW) 21:46:11 437.345
GONETS M04 18 Apr 21:38:43 21:45:10 21° 321° (NW) 21:51:26
Oscar 11 18 Apr 21:42:56 21:47:14 61° 70° (ENE) 21:51:35 145.826/435.025
DANDE 18 Apr 21:45:14 21:46:34 11° 318° (NW) 21:47:53 436.750
